Location: Unspecified
(42.3650°N, 71.1030°W)
Time: 17:15:25
(UTC+00:00)

Transit 2A - Pass Details

Date: 03 July 2024
Orbit: 591 x 960 km, 66.7° (Epoch: 16 July)

Event Time Altitude Azimuth Distance (km) Brightness Sun altitude
Rises 02:36:20 0° 325° (NW) 3,585 11.2 -17.9°
Reaches altitude 10° 02:38:53 10° 322° (NW) 2,665 10.1 -18.2°
Maximum altitude 02:45:02 58° 245° (WSW) 1,114 6.8 -18.7°
Enters shadow 02:48:19 28° 179° (S) 1,713 7.3 -19.0°
